sat.trackr.live / text

‹ back to catalog

STARLINK-33904

NORAD 63887 · 2025-094Z

PAYLOAD ACTIVE UNKNOWN

§ Identity

Operator
Country
US
Launch date
2025-05-10
Launch site
AFWTR
Launch vehicle
Mass (kg)
RCS (m²)

Purposes: comms

External: N2YO · Heavens-Above · Gunter

§ Orbital elements

Epoch: 2026-05-25T02:35:05.356032Z

Period
96.11 min
Inclination
70.0016°
Eccentricity
0.0002116
Mean motion
14.98352214 rev/d
Perigee alt
570.5 km
Apogee alt
573.5 km
Semi-major
6,950.1 km
B*
8.9464e-4
RAAN
41.6249°
Arg perigee
287.4094°
Mean anomaly
72.6834°
Rev number
5,865

§ Raw data

STARLINK-339041 63887U 25094Z   26145.10770088  .00010604  00000+0  89464-3 0  99952 63887  70.0016  41.6249 0002116 287.4094  72.6834 14.98352214 58651

JSON: /api/v1/satellites/63887 · /tle

For live sub-satellite position, see the globe view (requires WebGL).

§ Visibility from observer

Set your observer location to see the next 7 days of passes ≥ 10°. The values pass through the URL so the page stays shareable.

No JS? Fill the form by hand. The geolocation button needs JavaScript.